SCOUT B DEB, 2498

Orbit data source: Space-Track

SCOUT B DEB, 2498 is space debris in LEO originally from a launch on Fri, 10 Jun 1966 UTC launched from the Wallops Island (WLPIS). Debris objects in space refer to the collection of defunct objects orbiting the Earth. Examples of debris include non-operational satellites, rocket bodies, and fragments generated from explosions, collisions, or faulty payload assembly.

Loading next visibility...
Identifier
2498, 1966-052C
Orbit
LEO
Country
Flag of USUS
Related business
Manufacturer
Unknown
Mission
Spacecraft
Bus & Motor
Unknown
Mass
Unknown
Launch date (UTC)
1966-06-10 (60 years ago)
Launch vehicle
Unknown
Launch site
Wallops Island (WLPIS)
Object type
Payload
Rocket body
Debris
Shape & HBR
Unknown shape, 0.1 m
Radar Cross Section
Medium (>0.1 m² and <1 m²)

Expand to show TLE details & history
Last TLE update: 14 hours ago

TLE from 14 hours ago
0 SCOUT B DEB
1  2498U 66052C   26177.94307014  .00000348  00000-0  34674-3 0  9995
2  2498  40.6265 123.1218 2067692 127.0119 253.8181 10.56429794477899
Epoch: 2026-06-26T22:38Z
TLE epoch observation values (Epoch: 2026-06-26T22:38:01.260Z)
Latitude
0.00001°
Longitude
-131.44777°
Altitude
3,211.85 km
Speed
6.142 km/s
True Right ascension
08h 12m 29s
True Declination
0° 00' 00"
Sunlit
Object was in daylight at epoch
Visualization orbit readout
Latitude
Unknown
Longitude
Unknown
Altitude
Unknown
Speed
Unknown
Apparent Right ascension
Unknown
Apparent Declination
Unknown
Sunlit
N/A
Visualization observer readout
Local Sidereal Time
00:02:10
Azimuth
Unknown
Elevation
Unknown
Doppler factor
Unknown
Orbital elements
Apogee altitude
4,211.86 km
Perigee altitude
582.856 km
Semi-major axis
8,775.495 km
Eccentricity
0.20677
Inclination
40.6265°
RAAN
123.1218°
Arg. of periapsis
127.0119°
True anomaly
233.05371°
Mean anomaly
253.8181°
Eccentric anomaly
243.23991°
Mean motion
2.64019 °/min
Orbital period
136.35 mins
BSTAR
0.00034674
Loading maneuver chart data...
Computing Atmospheric mass density...
Loading historical data...
Loading historical data...
Loading historical data...
Loading historical data...
Loading historical data...
Loading historical data...
Loading historical data...
Other satellites on launch #52 in the year 1966 (1966-06-10 UTC)

Documentation

Showing up to 5 results
|